Weather in Piatyhirske

Ukraine / Kharkiv Region     49°26′28″N   36°36′05″E
temp.,
°C
wind,
m/s
gust,
m/s
humid.,
%
clouds,
%
prec.,
mm/h
press.,
hPa
HPBL,
m
15 august, mon
mon1500:00+25ene71738100 0.0 1011569
03:00+25ene71529100 0.0 1011594
06:00+24ene6153170 0.0 1011616
09:00+29e81125100 0.0 1010811
12:00+35e81117100 0.0 10102296
15:00+37ese91114100 0.0 10074134
18:00+33ese4921100 0.0 10081212
21:00+32e8162187 0.0 1007987
16 august, tue
tue1600:00+30e816237 0.0 1008683
03:00+25ese51142100 0.6 1009242
06:00+24e71543100 0.9 1010420
09:00+26e71434100 1.0 1010625
12:00+29ese71124100 0.0 1010972
15:00+32e71022100 0.0 10091540
18:00+28se3739100 0.0 1008243
21:00+22wnw337024 0.9 100947
17 august, wed
wed1700:00+20w1178100 1.2 101017
03:00+20nw0075100 1.4 100911
06:00+20nne2275100 0.0 101012
09:00+26nnw2255100 0.0 1010389
12:00+31nw3339100 0.0 10091510
15:00+32w423386 0.0 10082531
18:00+32w22316 0.0 10081191
21:00+26wnw11435 0.0 100811
18 august, thu
thu1800:00+22nw35655 0.1 100885
03:00+21wnw237242 0.1 100836
06:00+20nw22748 0.0 100820
09:00+27nnw21475 0.0 1009423
12:00+32wnw32335 0.0 10081690
15:00+33w433167 0.0 10082232
18:00+28ese7744100 0.3 1008636
21:00+20sse487379 1.6 1009128
19 august, fri
fri1900:00+20wnw347028 0.1 100857
03:00+20sw118085 0.1 100811
06:00+20ese11815 0.0 100911
09:00+26ese2352100 0.0 1009482
12:00+32ese223313 0.0 10091412
15:00+34s232856 0.0 10082752
18:00+33w22293 0.0 10082053
21:00+22nne612727 1.3 1010327